IU5NOC-10 Weather Reports


time (UTC)temp
C
wind
direction
speed
KPH
gust
KPH
rain 1hr
cm
rain 24hr
cm
rain mn
cm
humidity
%
barometer
mb
20260906111931 37 5 1.6 3.2 0.00 0.00 0.00 3 996.4
20260906110432 36 212 3.2 4.8 0.00 0.00 0.00 3 996.7
20260906104932 35 195 3.2 6.4 0.00 0.00 0.00 3 996.6
20260906103431 31 83 3.2 4.8 0.00 0.00 0.00 4 996.8
20260906101931 33 293 4.8 6.4 0.00 0.00 0.00 3 996.8
20260906100432 33 35 0.0 6.4 0.00 0.00 0.00 4 996.8
20260906094931 32 33 3.2 4.8 0.00 0.00 0.00 3 996.7
20260906093431 30 7 0.0 1.6 0.00 0.00 0.00 4 996.9
20260906091931 32 28 0.0 3.2 0.00 0.00 0.00 4 997.1
20260906090432 30 58 1.6 6.4 0.00 0.00 0.00 4 997.1
20260906084931 30 103 0.0 3.2 0.00 0.00 0.00 4 997.0
20260906083431 30 56 4.8 6.4 0.00 0.00 0.00 5 997.1
20260906081932 31 21 1.6 3.2 0.00 0.00 0.00 4 996.9
20260906080432 28 11 0.0 4.8 0.00 0.00 0.00 5 996.9
20260906074931 28 35 0.0 0.0 0.00 0.00 0.00 5 996.8
20260906073431 30 18 0.0 1.6 0.00 0.00 0.00 5 996.7
20260906071932 26 36 0.0 1.6 0.00 0.00 0.00 6 996.8
20260906070432 26 36 0.0 0.0 0.00 0.00 0.00 5 996.6
20260906064931 27 41 0.0 1.6 0.00 0.00 0.00 5 996.5
20260906063431 24 39 0.0 0.0 0.00 0.00 0.00 6 996.4
20260906061932 24 24 0.0 0.0 0.00 0.00 0.00 6 996.4
20260906060432 23 42 0.0 0.0 0.00 0.00 0.00 6 996.6
20260906054931 21 38 0.0 0.0 0.00 0.00 0.00 7 996.4
20260906053431 21 36 0.0 0.0 0.00 0.00 0.00 7 996.6
20260906051932 18 15 0.0 0.0 0.00 0.00 0.00 8 996.1
20260906050432 18 14 0.0 0.0 0.00 0.00 0.00 8 996.3
20260906044932 17 14 0.0 0.0 0.00 0.00 0.00 8 996.3
20260906043431 17 358 1.6 1.6 0.00 0.00 0.00 8 996.3
20260906041932 17 20 0.0 0.0 0.00 0.00 0.00 8 996.2
20260906040432 17 359 0.0 0.0 0.00 0.00 0.00 8 996.0
20260906034931 18 10 0.0 0.0 0.00 0.00 0.00 8 996.0
20260906033431 18 8 0.0 0.0 0.00 0.00 0.00 8 995.8
20260906031932 19 20 0.0 0.0 0.00 0.00 0.00 8 995.6
20260906030432 20 209 4.8 6.4 0.00 0.00 0.00 8 995.8
20260906024931 20 141 3.2 4.8 0.00 0.00 0.00 7 995.8
20260906023431 18 12 0.0 0.0 0.00 0.00 0.00 8 995.7
20260906021932 20 319 1.6 3.2 0.00 0.00 0.00 7 995.7
20260906020432 19 350 0.0 1.6 0.00 0.00 0.00 8 995.8
20260906014931 19 1 0.0 1.6 0.00 0.00 0.00 8 995.8
20260906013431 19 5 0.0 1.6 0.00 0.00 0.00 8 995.8
20260906011932 19 4 0.0 0.0 0.00 0.00 0.00 8 995.7
20260906010432 20 8 0.0 0.0 0.00 0.00 0.00 8 995.8
20260906004931 20 211 3.2 4.8 0.00 0.00 0.00 7 995.8
20260906003431 20 17 0.0 0.0 0.00 0.00 0.00 8 995.7
20260906001932 20 93 1.6 3.2 0.00 0.00 0.00 8 995.9
20260906000433 20 2 1.6 3.2 0.00 0.00 0.00 8 995.9
20260905234931 20 280 3.2 6.4 0.00 0.00 0.00 8 995.6
20260905233431 20 240 3.2 3.2 0.00 0.00 0.00 7 995.7
20260905231932 20 20 0.0 0.0 0.00 0.00 0.00 7 995.8
20260905230432 21 344 1.6 3.2 0.00 0.00 0.00 7 996.0
20260905224932 21 19 0.0 0.0 0.00 0.00 0.00 7 996.0
20260905223431 21 264 1.6 4.8 0.00 0.00 0.00 7 995.7
20260905221932 22 275 1.6 3.2 0.00 0.00 0.00 7 995.7
20260905220432 22 206 3.2 6.4 0.00 0.00 0.00 7 995.8
20260905214931 22 162 3.2 4.8 0.00 0.00 0.00 7 995.6
20260905213431 22 80 0.0 3.2 0.00 0.00 0.00 7 995.6
20260905211932 22 15 0.0 0.0 0.00 0.00 0.00 7 995.6
20260905210431 23 24 0.0 0.0 0.00 0.00 0.00 6 995.2
20260905204931 23 313 1.6 3.2 0.00 0.00 0.00 6 995.3
20260905203431 22 19 0.0 3.2 0.00 0.00 0.00 7 995.5
20260905201932 23 15 0.0 1.6 0.00 0.00 0.00 7 995.6
20260905200431 23 32 0.0 1.6 0.00 0.00 0.00 6 995.2
20260905194931 24 317 3.2 6.4 0.00 0.00 0.00 6 995.3
20260905193431 25 242 3.2 4.8 0.00 0.00 0.00 6 995.0
20260905191932 25 85 3.2 4.8 0.00 0.00 0.00 6 995.0
20260905190431 25 243 4.8 8.0 0.00 0.00 0.00 6 994.7
20260905184931 25 228 3.2 8.0 0.00 0.00 0.00 6 994.5
20260905183431 26 264 3.2 12.9 0.00 0.00 0.00 5 994.5
20260905181932 26 225 4.8 8.0 0.00 0.00 0.00 6 994.2
20260905180431 26 265 1.6 3.2 0.00 0.00 0.00 6 994.3
20260905174931 27 349 0.0 1.6 0.00 0.00 0.00 6 994.1
20260905173431 27 29 0.0 1.6 0.00 0.00 0.00 5 994.1
20260905171932 28 34 0.0 4.8 0.00 0.00 0.00 5 993.8
20260905170431 29 16 1.6 3.2 0.00 0.00 0.00 5 994.1
20260905164931 30 29 1.6 4.8 0.00 0.00 0.00 5 993.7
20260905163431 31 341 0.0 8.0 0.00 0.00 0.00 4 993.5
20260905161932 31 317 3.2 6.4 0.00 0.00 0.00 4 993.7
20260905160432 31 43 4.8 8.0 0.00 0.00 0.00 4 993.6
20260905154931 32 296 6.4 8.0 0.00 0.00 0.00 4 993.4
20260905153431 32 345 0.0 8.0 0.00 0.00 0.00 4 993.2
20260905151932 32 324 3.2 9.7 0.00 0.00 0.00 4 993.5
20260905150432 31 284 4.8 12.9 0.00 0.00 0.00 4 993.2
20260905144931 33 344 8.0 19.3 0.00 0.00 0.00 4 993.2
20260905143431 33 285 3.2 4.8 0.00 0.00 0.00 4 993.4
20260905141932 34 291 6.4 14.5 0.00 0.00 0.00 4 993.7
20260905140431 33 331 0.0 4.8 0.00 0.00 0.00 4 993.8
20260905134931 33 20 1.6 3.2 0.00 0.00 0.00 4 993.8
20260905133431 34 317 6.4 9.7 0.00 0.00 0.00 4 994.0
20260905131932 35 244 6.4 14.5 0.00 0.00 0.00 4 993.9
20260905130431 35 346 0.0 8.0 0.00 0.00 0.00 3 994.2
20260905124931 32 313 1.6 4.8 0.00 0.00 0.00 4 994.3
20260905123431 35 6 4.8 16.1 0.00 0.00 0.00 3 994.5
20260905121932 35 358 3.2 8.0 0.00 0.00 0.00 3 994.6
20260905120432 35 316 1.6 6.4 0.00 0.00 0.00 3 994.6
20260905114931 33 352 4.8 6.4 0.00 0.00 0.00 3 994.7
20260905113431 34 324 9.7 16.1 0.00 0.00 0.00 3 995.0